This demonstration page uses our WeatherBlox Daily Observations layout. Learn more.

Left ArrowRight Arrow

Hourly Observations for July 5, 2016

Temp ( °F °C ) Dew Point ( °F °C ) Humidity (%) Winds ( mph kmh ) Pressure ( in mb ) Visibility ( mi km ) Precip ( " mm )
12:15 am 00:15 Cloudy 72 22 72 22 100 100 SSW 7 11 29.88 1012 10 16 N/A
12:35 am 00:35 Cloudy 72 22 72 22 100 100 SW 3 6 29.88 1012 10 16 N/A
12:55 am 00:55 Cloudy with Light Rain 72 22 72 22 100 100 SSW 3 6 29.88 1012 10 16 N/A
1:15 am 01:15 Cloudy 72 22 72 22 100 100 N N/A 29.88 1012 10 16 N/A
1:35 am 01:35 Cloudy with Drizzle 72 22 72 22 100 100 S 6 9 29.88 1012 10 16 N/A
1:55 am 01:55 Cloudy with Heavy Rain 72 22 72 22 100 100 WSW 6 9 29.88 1012 4 6 N/A
2:15 am 02:15 Cloudy with Heavy Rain 72 22 72 22 100 100 W 6 9 29.88 1012 3 4 N/A
2:35 am 02:35 Cloudy with Light Rain 72 22 72 22 100 100 S 8 13 29.85 1011 3 5 N/A
2:55 am 02:55 Cloudy with Rain 72 22 72 22 100 100 S 8 13 29.85 1011 7 11 N/A
3:15 am 03:15 Cloudy with Light Rain 72 22 72 22 100 100 S 3 6 29.85 1011 7 11 N/A
3:35 am 03:35 Cloudy with Drizzle 72 22 72 22 100 100 S 5 7 29.83 1010 7 11 N/A
3:55 am 03:55 Cloudy with Light Rain 72 22 72 22 100 100 N N/A 29.83 1010 5 8 N/A
4:15 am 04:15 Cloudy with Heavy Rain 72 22 72 22 100 100 W 3 6 29.85 1011 4 6 N/A
4:35 am 04:35 Cloudy with Heavy Rain 72 22 72 22 100 100 W 3 6 29.85 1011 2 3 N/A
4:55 am 04:55 Cloudy with Rain 72 22 72 22 100 100 SW 5 7 29.85 1011 4 6 N/A
5:15 am 05:15 Cloudy with Rain 72 22 72 22 100 100 SW 5 7 29.85 1011 5 8 N/A
5:35 am 05:35 Cloudy with Light Rain 72 22 72 22 100 100 SSW 5 7 29.85 1011 7 11 N/A
5:55 am 05:55 Cloudy 72 22 72 22 100 100 SW 3 6 29.85 1011 7 11 N/A
6:15 am 06:15 Mostly Cloudy 72 22 72 22 100 100 W 3 6 29.85 1011 7 11 N/A
6:35 am 06:35 Mostly Cloudy 72 22 72 22 100 100 WSW 3 6 29.85 1011 10 16 N/A
6:55 am 06:55 Partly Cloudy 72 22 72 22 100 100 SW 6 9 29.88 1012 10 16 N/A
7:15 am 07:15 Mostly Cloudy 72 22 72 22 100 100 SW 5 7 29.88 1012 10 16 N/A
7:35 am 07:35 Cloudy 73 23 73 23 100 100 SW 5 7 29.88 1012 10 16 N/A
7:55 am 07:55 Cloudy 75 24 75 24 100 100 SSW 6 9 29.88 1012 10 16 N/A
8:15 am 08:15 Partly Cloudy 75 24 75 24 100 100 SSW 8 13 29.88 1012 10 16 N/A
8:35 am 08:35 Partly Cloudy 77 25 77 25 100 100 SSW 6 9 29.88 1012 10 16 N/A
8:55 am 08:55 Sunny 79 26 77 25 94 94 W 7 11 29.88 1012 10 16 N/A
9:15 am 09:15 Sunny 81 27 75 24 84 84 W 8 13 29.88 1012 10 16 N/A
9:35 am 09:35 Sunny 81 27 75 24 84 84 W 9 15 29.88 1012 10 16 N/A
9:55 am 09:55 Sunny 82 28 75 24 79 79 WNW 15 24 29.88 1012 10 16 N/A
10:15 am 10:15 Sunny 82 28 73 23 74 74 WNW 12 19 29.88 1012 10 16 N/A
10:35 am 10:35 Mostly Cloudy 82 28 73 23 74 74 WNW 12 19 29.88 1012 10 16 N/A
10:55 am 10:55 Partly Cloudy 84 29 73 23 70 70 W 14 22 29.88 1012 10 16 N/A
11:15 am 11:15 Partly Cloudy 84 29 73 23 70 70 W 13 20 29.88 1012 10 16 N/A
11:35 am 11:35 Partly Cloudy 86 30 73 23 66 66 WNW 14 22 29.85 1011 10 16 N/A
11:55 am 11:55 Cloudy 84 29 73 23 70 70 W 13 20 29.88 1012 10 16 N/A
12:15 pm 12:15 Mostly Cloudy 86 30 73 23 66 66 W 9 15 29.85 1011 10 16 N/A
12:35 pm 12:35 Mostly Cloudy 86 30 73 23 66 66 W 9 15 29.85 1011 10 16 N/A
12:55 pm 12:55 Partly Cloudy 88 31 73 23 62 62 WNW 14 22 29.85 1011 10 16 N/A
1:15 pm 13:15 Mostly Cloudy 86 30 73 23 66 66 WNW 12 19 29.85 1011 10 16 N/A
1:35 pm 13:35 Mostly Cloudy 88 31 75 24 66 66 WNW 15 24 29.85 1011 10 16 N/A
1:55 pm 13:55 Mostly Cloudy 88 31 73 23 62 62 NW 17 28 29.85 1011 10 16 N/A
2:15 pm 14:15 Mostly Cloudy 88 31 73 23 62 62 NW 15 24 29.85 1011 10 16 N/A
2:35 pm 14:35 Partly Cloudy 88 31 73 23 62 62 WNW 17 28 29.85 1011 10 16 N/A
2:55 pm 14:55 Partly Cloudy 88 31 73 23 62 62 NW 17 28 29.85 1011 10 16 N/A
3:15 pm 15:15 Partly Cloudy 88 31 72 22 59 59 NNW 13 20 29.85 1011 10 16 N/A
3:35 pm 15:35 Partly Cloudy 90 32 73 23 59 59 NW 15 24 29.85 1011 10 16 N/A
3:55 pm 15:55 Partly Cloudy 88 31 73 23 62 62 WNW 13 20 29.85 1011 10 16 N/A
4:15 pm 16:15 Partly Cloudy 90 32 73 23 59 59 NNW 12 19 29.85 1011 10 16 N/A
4:35 pm 16:35 Partly Cloudy 90 32 73 23 59 59 NNW 14 22 29.83 1010 10 16 N/A
4:55 pm 16:55 Partly Cloudy 88 31 73 23 62 62 WNW 6 9 29.85 1011 10 16 N/A
5:15 pm 17:15 Partly Cloudy 90 32 73 23 59 59 NW 7 11 29.85 1011 10 16 N/A
5:35 pm 17:35 Partly Cloudy 88 31 73 23 62 62 NNW 6 9 29.85 1011 10 16 N/A
5:55 pm 17:55 Partly Cloudy 88 31 73 23 62 62 N 6 9 29.83 1010 10 16 N/A
6:15 pm 18:15 Sunny 88 31 73 23 62 62 N 6 9 29.83 1010 10 16 N/A
6:35 pm 18:35 Partly Cloudy 88 31 73 23 62 62 N 7 11 29.83 1010 10 16 N/A
6:55 pm 18:55 Mostly Cloudy 86 30 73 23 66 66 NNW 7 11 29.85 1011 10 16 N/A
7:15 pm 19:15 Mostly Cloudy 86 30 73 23 66 66 NNW 6 9 29.85 1011 10 16 N/A
7:35 pm 19:35 Partly Cloudy 86 30 73 23 66 66 N 7 11 29.85 1011 10 16 N/A
7:55 pm 19:55 Mostly Cloudy 84 29 72 22 66 66 NNW 5 7 29.88 1012 10 16 N/A
8:15 pm 20:15 Cloudy 84 29 73 23 70 70 N N/A 29.88 1012 10 16 N/A
8:35 pm 20:35 Cloudy 82 28 73 23 74 74 N N/A 29.88 1012 10 16 N/A
8:55 pm 20:55 Cloudy 82 28 73 23 74 74 N N/A 29.88 1012 10 16 N/A
9:15 pm 21:15 Cloudy 82 28 73 23 74 74 N N/A 29.88 1012 10 16 N/A
9:35 pm 21:35 Mostly Cloudy 81 27 75 24 84 84 S 5 7 29.91 1013 10 16 N/A
9:55 pm 21:55 Partly Cloudy 81 27 73 23 79 79 SW 10 17 29.91 1013 10 16 N/A
10:15 pm 22:15 Mostly Cloudy 81 27 75 24 84 84 SW 12 19 29.91 1013 10 16 N/A
10:35 pm 22:35 Partly Cloudy 79 26 75 24 89 89 N N/A 29.91 1013 10 16 N/A
10:55 pm 22:55 Partly Cloudy 77 25 75 24 94 94 W 7 11 29.94 1014 10 16 N/A
11:15 pm 23:15 Clear 77 25 77 25 100 100 WNW 5 7 29.94 1014 10 16 N/A
11:35 pm 23:35 Clear 79 26 75 24 89 89 N N/A 29.91 1013 10 16 N/A
11:55 pm 23:55 Clear 77 25 75 24 94 94 SSW 12 19 29.94 1014 10 16 N/A

Powered by AerisWeather